Weather History for Venice, FL

Change the Weather History Date:

Friday, March 8, 2013

  Actual Average Record
Temperature  
Mean Temperature 56 °F -  
Max Temperature 68 °F 76 °F 84 °F (1964)
Min Temperature 44 °F 54 °F 31 °F (1962)
Degree Days  
Heating Degree Days 9    
Growing Degree Days 6 (Base 50)    
Moisture  
Dew Point 45 °F    
Average Humidity 68    
Maximum Humidity 93    
Minimum Humidity 35    
Precipitation  
Precipitation 0.00 in - - ()
Sea Level Pressure  
Sea Level Pressure 30.20 in    
Wind  
Wind Speed 8 mph (North)    
Max Wind Speed 17 mph    
Max Gust Speed 17 mph    
Visibility 9 miles    
Events      
Averages and records for this station are not official NWS values.
T = Trace of Precipitation, MM = Missing Value Source: NWS Daily Summary

Daily Weather History Graph

Daily Weather History Graph

Search for Another Location

Airport:

Trip Planner

Search our weather history database for the weather conditions in past years. The results will help you decide how hot, cold, wet, or windy it might be!

Date:

Astronomy

Mar. 08, 2013 Rise Set
Actual Time 6:46 AM EST 6:34 PM EST
Civil Twilight 6:23 AM EST 6:58 PM EST
Nautical Twilight 5:56 AM EST 7:25 PM EST
Astronomical Twilight 5:29 AM EST 7:52 PM EST
Moon 4:15 AM EST (3/8) 3:41 PM EST (3/8)
Length of Visible Light 12h 34m
Length of Day
11h 48m
Waning Crescent, 12% of the Moon is Illuminated
Mar 8
Waning Crescent
Mar 11
New
Mar 19
First Quarter
Mar 27
Full
Apr 3
Last Quarter

Hourly Weather History & Observations

Time (EST) Temp. Windchill Dew Point Humidity Pressure Visibility Wind Dir Wind Speed Gust Speed Precip Events Conditions
12:15 AM 46.4 °F 43.5 °F 44.6 °F 93% 30.22 in 10.0 mi NNE 5.8 mph - N/A   Clear
12:35 AM 46.4 °F 42.9 °F 44.6 °F 93% 30.22 in 10.0 mi NNE 6.9 mph - N/A   Clear
12:55 AM 48.2 °F - 44.6 °F 87% 30.22 in 10.0 mi NNE 5.8 mph - N/A   Clear
1:15 AM 46.4 °F 43.5 °F 44.6 °F 93% 30.21 in 10.0 mi NNE 5.8 mph - N/A   Clear
1:35 AM 46.4 °F 43.5 °F 44.6 °F 93% 30.21 in 9.0 mi NE 5.8 mph - N/A   Clear
1:55 AM 46.4 °F 42.9 °F 42.8 °F 87% 30.21 in 10.0 mi NE 6.9 mph - N/A   Clear
2:15 AM 46.4 °F 41.9 °F 44.6 °F 93% 30.21 in 9.0 mi NE 9.2 mph - N/A   Clear
2:35 AM 46.4 °F 41.9 °F 42.8 °F 87% 30.21 in 7.0 mi NE 9.2 mph - N/A   Clear
2:55 AM 46.4 °F 41.9 °F 42.8 °F 87% 30.20 in 8.0 mi NE 9.2 mph - N/A   Clear
3:15 AM 46.4 °F 41.9 °F 42.8 °F 87% 30.20 in 7.0 mi NE 9.2 mph - N/A   Clear
3:35 AM 46.4 °F 42.9 °F 42.8 °F 87% 30.19 in 7.0 mi NE 6.9 mph - N/A   Clear
3:55 AM 46.4 °F 41.9 °F 42.8 °F 87% 30.19 in 8.0 mi NE 9.2 mph - N/A   Clear
4:15 AM 46.4 °F 42.4 °F 42.8 °F 87% 30.19 in 7.0 mi NE 8.1 mph - N/A   Clear
4:35 AM 46.4 °F 41.5 °F 41.0 °F 81% 30.19 in 8.0 mi NE 10.4 mph - N/A   Clear
4:55 AM 46.4 °F 42.4 °F 41.0 °F 81% 30.19 in 8.0 mi NNE 8.1 mph - N/A   Clear
5:15 AM 46.4 °F 42.4 °F 41.0 °F 81% 30.20 in 9.0 mi NNE 8.1 mph - N/A   Clear
5:35 AM 46.4 °F 42.4 °F 41.0 °F 81% 30.21 in 8.0 mi NE 8.1 mph - N/A   Clear
5:55 AM 44.6 °F 40.2 °F 41.0 °F 87% 30.21 in 7.0 mi NE 8.1 mph - N/A   Clear
6:15 AM 44.6 °F 39.7 °F 41.0 °F 87% 30.21 in 7.0 mi NE 9.2 mph - N/A   Clear
6:35 AM 44.6 °F 40.2 °F 41.0 °F 87% 30.21 in 7.0 mi NE 8.1 mph - N/A   Clear
6:55 AM 44.6 °F 40.7 °F 41.0 °F 87% 30.21 in 6.0 mi NE 6.9 mph - N/A   Clear
7:15 AM 44.6 °F 40.2 °F 41.0 °F 87% 30.22 in 5.0 mi NE 8.1 mph - N/A   Clear
7:35 AM 46.4 °F 42.4 °F 41.0 °F 81% 30.23 in 8.0 mi NE 8.1 mph - N/A   Clear
7:55 AM 48.2 °F - 42.8 °F 82% 30.23 in 7.0 mi NE 8.1 mph - N/A   Clear
8:15 AM 50.0 °F - 44.6 °F 82% 30.24 in 8.0 mi NE 8.1 mph - N/A   Clear
8:35 AM 53.6 °F - 44.6 °F 72% 30.25 in 8.0 mi NE 6.9 mph - N/A   Clear
8:55 AM 55.4 °F - 44.6 °F 67% 30.25 in 9.0 mi NE 6.9 mph - N/A   Clear
9:15 AM 57.2 °F - 46.4 °F 67% 30.25 in 10.0 mi NE 4.6 mph - N/A   Clear
9:35 AM 59.0 °F - 46.4 °F 63% 30.25 in 10.0 mi NE 5.8 mph - N/A   Clear
9:55 AM 60.8 °F - 44.6 °F 55% 30.25 in 9.0 mi NE 6.9 mph - N/A   Unknown
10:15 AM 62.6 °F - 42.8 °F 48% 30.24 in 10.0 mi ENE 8.1 mph - N/A   Unknown
10:35 AM 64.4 °F - 41.0 °F 42% 30.25 in 10.0 mi ENE 8.1 mph - N/A   Unknown
10:55 AM 66.2 °F - 39.2 °F 37% 30.24 in 10.0 mi NE 8.1 mph - N/A   Clear
11:15 AM 66.2 °F - 39.2 °F 37% 30.24 in 10.0 mi NE 8.1 mph - N/A   Clear
11:35 AM 68.0 °F - 39.2 °F 35% 30.23 in 10.0 mi NE 5.8 mph - N/A   Clear
11:55 AM 68.0 °F - 41.0 °F 37% 30.22 in 10.0 mi NW 9.2 mph - N/A   Clear
12:15 PM 66.2 °F - 46.4 °F 49% 30.22 in 10.0 mi WNW 10.4 mph - N/A   Clear
12:35 PM 66.2 °F - 42.8 °F 43% 30.21 in 10.0 mi West 11.5 mph - N/A   Clear
12:55 PM 66.2 °F - 46.4 °F 49% 30.20 in 10.0 mi WNW 12.7 mph - N/A   Clear
1:15 PM 66.2 °F - 46.4 °F 49% 30.19 in 9.0 mi WNW 12.7 mph - N/A   Clear
1:35 PM 66.2 °F - 46.4 °F 49% 30.18 in 9.0 mi WNW 15.0 mph - N/A   Clear
1:55 PM 66.2 °F - 44.6 °F 46% 30.17 in 9.0 mi NW 12.7 mph - N/A   Clear
2:15 PM 66.2 °F - 46.4 °F 49% 30.17 in 10.0 mi NW 13.8 mph - N/A   Clear
2:35 PM 66.2 °F - 46.4 °F 49% 30.17 in 9.0 mi NW 13.8 mph - N/A   Clear
2:55 PM 66.2 °F - 46.4 °F 49% 30.16 in 10.0 mi WNW 15.0 mph - N/A   Clear
3:15 PM 66.2 °F - 46.4 °F 49% 30.16 in 10.0 mi WNW 13.8 mph - N/A   Clear
3:35 PM 66.2 °F - 46.4 °F 49% 30.16 in 10.0 mi WNW 16.1 mph - N/A   Clear
3:55 PM 66.2 °F - 48.2 °F 52% 30.16 in 10.0 mi WNW 17.3 mph - N/A   Clear
4:15 PM 66.2 °F - 48.2 °F 52% 30.16 in 9.0 mi WNW 15.0 mph - N/A   Clear
4:35 PM 64.4 °F - 50.0 °F 59% 30.16 in 9.0 mi WNW 12.7 mph 17.3 mph N/A   Clear
4:55 PM 64.4 °F - 50.0 °F 59% 30.16 in 10.0 mi WNW 12.7 mph - N/A   Clear
5:15 PM 64.4 °F - 50.0 °F 59% 30.16 in 9.0 mi WNW 12.7 mph - N/A   Clear
5:35 PM 64.4 °F - 50.0 °F 59% 30.16 in 10.0 mi West 9.2 mph - N/A   Clear
5:55 PM 62.6 °F - 50.0 °F 63% 30.17 in 8.0 mi WNW 10.4 mph - N/A   Clear
6:15 PM 62.6 °F - 50.0 °F 63% 30.17 in 9.0 mi NW 11.5 mph - N/A   Clear
6:35 PM 60.8 °F - 48.2 °F 63% 30.17 in 10.0 mi NW 11.5 mph - N/A   Clear
6:55 PM 60.8 °F - 48.2 °F 63% 30.18 in 10.0 mi NW 11.5 mph - N/A   Clear
7:15 PM 60.8 °F - 50.0 °F 68% 30.18 in 10.0 mi NW 10.4 mph - N/A   Clear
7:35 PM 60.8 °F - 50.0 °F 68% 30.19 in 10.0 mi NW 9.2 mph - N/A   Clear
7:55 PM 60.8 °F - 50.0 °F 68% 30.19 in 10.0 mi NW 11.5 mph - N/A   Clear
8:15 PM 60.8 °F - 50.0 °F 68% 30.20 in 10.0 mi NW 10.4 mph - N/A   Clear
8:35 PM 60.8 °F - 50.0 °F 68% 30.20 in 10.0 mi NW 10.4 mph - N/A   Clear
8:55 PM 60.8 °F - 50.0 °F 68% 30.20 in 10.0 mi NNW 5.8 mph - N/A   Partly Cloudy
9:15 PM 59.0 °F - 50.0 °F 72% 30.20 in 10.0 mi NNW 8.1 mph - N/A   Clear
9:35 PM 59.0 °F - 50.0 °F 72% 30.20 in 10.0 mi North 5.8 mph - N/A   Clear
9:55 PM 59.0 °F - 50.0 °F 72% 30.20 in 10.0 mi North 6.9 mph - N/A   Clear
10:15 PM 59.0 °F - 48.2 °F 67% 30.21 in 10.0 mi North 5.8 mph - N/A   Clear
10:35 PM 59.0 °F - 48.2 °F 67% 30.21 in 10.0 mi North 5.8 mph - N/A   Clear
10:55 PM 57.2 °F - 48.2 °F 72% 30.21 in 10.0 mi NE 9.2 mph - N/A   Clear
11:15 PM 55.4 °F - 48.2 °F 77% 30.20 in 10.0 mi North 5.8 mph - N/A   Clear
11:35 PM 55.4 °F - 46.4 °F 72% 30.20 in 10.0 mi NNE 9.2 mph - N/A   Clear
11:55 PM 55.4 °F - 46.4 °F 72% 30.20 in 10.0 mi NNE 9.2 mph - N/A   Clear